Location: Ford County Road and Bridge Department
(37.7686°N, 99.9762°W)
Time: 03:48:04
(UTC+00:00)

Cosmos 1602 Rocket - Pass Details

Date: 18 January 2020
Orbit: 603 x 634 km, 82.5° (Epoch: 18 February)

Event Time Altitude Azimuth Distance (km) Brightness Sun altitude
Exits shadow 11:50:36 26° 6° (N) 1,206 5.0 -23.9°
Maximum altitude 11:52:57 65° 82° (E) 665 3.8 -23.5°
Drops below altitude 10° 11:57:12 10° 164° (SSE) 1,943 6.4 -22.6°
Sets 11:59:26 0° 167° (SSE) 2,844 7.2 -22.2°
